Hourly Weather Roundup
Issued by NWS Central Illinois

Home | Current Version | Previous Version | Graphics & Text | Print | Product List | Glossary On
Versions: 1 2 3 4 5 6 7 8 9 10 11 12 13 14 15 16 17 18 19 20 21 22 23 24 25 26 27 28 29 30 31 32 33 34 35 36 37 38 39 40 41 42 43 44 45 46 47 48 49 50
000
NZUS43 KILX 200110
HWRILX

Area Weather Roundup
National Weather Service Lincoln IL
800 PM CDT THU APR 19 2018

NOTE:  "FAIR" indicates few or no clouds below 12,000 feet, with
       no sigificant weather and/or obstructions to visibility.


CITY           SKY/WX    TMP DP  RH WIND       PRES   REMARKS
Bloomington    FAIR      48  27  44 N7        30.41R
Champaign      FAIR      47  28  47 N9        30.39R
Danville       FAIR      45  26  47 NE7       30.36R
Decatur        FAIR      47  25  42 N8        30.40R
Effingham      FAIR      51  31  46 N6        30.39S
Flora          FAIR      51  33  49 N5        30.38S
Galesburg      FAIR      45  29  53 N7        30.43R
Jacksonville   CLEAR     48  25  40 NE5       30.40S
Lacon          FAIR      47  27  45 N6        30.42R
Lawrenceville  FAIR      50  30  46 N7        30.37R
Litchfield     CLEAR     47  29  50 N5        30.40R
$$


CITY           SKY/WX    TMP DP  RH WIND       PRES   REMARKS
Lincoln        FAIR      49  30  46 N5        30.41R
Macomb         CLEAR     46  26  45 N7        30.44R
Mattoon        FAIR      47  29  49 N8        30.38R
Mt Carmel AP   FAIR      48  34  57 N3        30.37S
Olney-Noble AP FAIR      51  26  37 N3        30.38S
Paris AP       FAIR      47  25  42 NE5       30.38S
Peoria         FAIR      50  24  36 N6        30.42R
Pontiac        FAIR      46  30  54 N6        30.42R
Rantoul        FAIR      51  32  48 N7        30.39S
Robinson       FAIR      48  30  49 N7        30.38R
Springfield    FAIR      50  26  39 N6        30.41R
Taylorville    FAIR      48  28  45 N7        30.40R
$$

...REGIONAL REPORTS...


CITY           SKY/WX    TMP DP  RH WIND       PRES   REMARKS
Chicago O`Hare FAIR      45  23  42 N8        30.40R
Kankakee       FAIR      43  25  49 NE5       30.41R
La Salle       FAIR      49  33  53 N8        30.43R
Moline         FAIR      49  24  37 N7        30.43R
Mount Sterling CLEAR     45  29  53 N6        30.40S
Mount Vernon   FAIR      50  31  48 CALM      30.38F
Pittsfield     CLEAR     52  27  37 NE5       30.41S
Quincy         CLEAR     49  27  42 NE6       30.40S
Rockford       FAIR      44  20  38 N10       30.44R
$$


CITY           SKY/WX    TMP DP  RH WIND       PRES   REMARKS
Burlington     CLEAR     49  23  36 NE7       30.41S
Cedar Rapids   FAIR      44  26  49 N9        30.43S
Des Moines     MOCLDY    50  26  39 NE7       30.43S
Kirksville     CLEAR     48  30  49 NE6       30.41S
Ottumwa        CLEAR     48  24  39 NE6       30.42R
St Louis       PTCLDY    53  29  39 N6        30.40R
$$


CITY           SKY/WX    TMP DP  RH WIND       PRES   REMARKS
Terre Haute    FAIR      50  26  39 N7        30.37R
Evansville     FAIR      50  31  48 NW3       30.38R
Indianapolis   FAIR      47  24  40 N14       30.35R
Lafayette      FAIR      42  15  33 N9        30.39R
Madison        FAIR      42  25  50 CALM      30.42S
Milwaukee      FAIR      46  26  45 W6        30.40F
$$





USA.gov is the U.S. government's official web portal to all federal, state and local government web resources and services.